Flag Weather past 2 weeks in Santo Domingo, Ecuador

Now
57 °F

Passing clouds.


Feels Like: 56 °F
Forecast: 72 / 88 °F
Wind: 6 mph from Northeast

Location: Latacunga Airport

Current Time: Oct 31, 2014 at 9:01:56 PM

Latest Report: Oct 31, 2014 at 8:00 PM


Visibility: N/A

Pressure: 30.33 "Hg

Humidity: 82%

Dew point: 52 °F

Location of Santo DomingoLocation

Historic Weather in Santo Domingo — Graph

°F

Santo Domingo temperature yesterday

Maximum temperature yesterday: 75 °F (at 2:00 PM)
Minimum temperature yesterday: 43 °F (at 6:00 AM)
Average temperature yesterday: 56 °F

Past Weeks' High & Low Weather Summary

 TemperatureHumidityPressure
High75 °F (Oct 30, 2:00 PM)100% (Oct 17, 12:00 AM)30.51 "Hg (Oct 17, 12:00 AM)
Low43 °F (Oct 30, 6:00 AM)29% (Oct 30, 2:00 PM)30.21 "Hg (Oct 30, 4:00 PM)
Average57 °F82%30.39 "Hg
* Reported Oct 16 8:00 PM — Oct 31 8:00 PM, Santo Domingo, Weather by CustomWeather, © 2014

Note: Actual official high and low records may vary slightly from our data, if they occured in-between our weather recording intervals... More about our weather records

Advertising

Santo Domingo weather history for previous 24 hours

 ConditionsComfort  
Time TempWeatherWind HumidityBarometerVisibility
8:00 PM
Oct 31
57 °FPassing clouds.6 mph82%30.33 "HgN/A
7:00 PM59 °FPassing clouds.6 mph72%30.33 "HgN/A
6:00 PM61 °FPassing clouds.12 mph72%30.27 "HgN/A
5:00 PM68 °FScattered clouds.6 mph53%30.21 "HgN/A
4:00 PM73 °FScattered clouds.7 mph47%30.21 "HgN/A
3:00 PM72 °FScattered clouds.2 mph50%30.24 "HgN/A
2:00 PM72 °FScattered clouds.9 mph53%30.27 "HgN/A
1:00 PM72 °FScattered clouds.9 mph53%30.33 "HgN/A
12:00 PM68 °FPassing clouds.10 mph60%30.36 "HgN/A
11:00 AM66 °FScattered clouds.9 mph68%30.42 "HgN/A
10:00 AM63 °FScattered clouds.5 mph73%30.45 "HgN/A
9:00 AM57 °FScattered clouds.3 mph72%30.45 "HgN/A
8:00 AM55 °FScattered clouds.No wind77%30.45 "HgN/A
7:00 AM57 °FPartly sunny.5 mph88%30.42 "HgN/A
5:00 AM52 °FPassing clouds.2 mph94%30.42 "HgN/A
4:00 AM52 °FPassing clouds.3 mph94%30.39 "HgN/A
3:00 AM52 °FPassing clouds.2 mph94%30.42 "HgN/A
1:00 AM52 °FPassing clouds.2 mph94%30.39 "HgN/A
12:00 AM52 °FPassing clouds.3 mph94%30.39 "HgN/A
11:00 PM
Oct 30
54 °FPassing clouds.3 mph88%30.42 "HgN/A
10:00 PM54 °FPassing clouds.2 mph88%30.39 "HgN/A
9:00 PM55 °FPassing clouds.2 mph88%30.36 "HgN/A
Weather by CustomWeather, © 2014

See weather overviewHow to use our weather pages